Regional Weather Roundup
Issued by NWS

Home | Current Version | Previous Version | Text Only | Print | Product List | Glossary On
Versions: 1 2 3 4 5 6 7 8 9 10 11 12 13 14 15 16 17 18 19 20 21 22 23 24 25 26 27 28
000
ASUS45 KSLC 191210
RWRUT

UTAH REGIONAL WEATHER ROUNDUP
NATIONAL WEATHER SERVICE SALT LAKE CITY UT
600 AM MDT THU APR 19 2018

UTZ001>011-023>025-191300-

NORTHERN UTAH

CITY           SKY/WX    TMP DP  RH WIND       PRES   REMARKS
BRIGHAM CITY   CLOUDY    44  26  49 CALM      29.90F
DUGWAY         MOCLDY    38  22  52 VRB3      29.86F
6HR MIN TEMP:  36; 6HR MAX TEMP:  47;

HILL AFB       CLOUDY    49  11  21 E9        29.89F
LOGAN          CLOUDY    44  31  60 CALM      29.92F
OGDEN          CLOUDY    44  18  35 NW3       29.88F
SALT LAKE CITY CLOUDY    46  23  40 SE10      29.88F
TOOELE VALLEY  MOCLDY    43  21  42 S15       29.87F
WENDOVER       CLOUDY    48  16  27 N5        29.86F
HEBER CITY       N/A     36  14  41 CALM      29.94F
WEST JORDAN    MOCLDY    44  19  37 SE5       29.90F

$$

UTZ011>015-024>027-191300-

CENTRAL/NORTHEAST UTAH

CITY           SKY/WX    TMP DP  RH WIND       PRES   REMARKS
PROVO AIRPORT  CLOUDY    50  12  21 E5        29.90F
MOAB/CANYONLAN CLOUDY    43   6  21 SE10      29.96F
DELTA          CLOUDY    39  27  60 E6        29.87F WCI  35
PRICE          CLOUDY    37   2  22 NW5       29.99F WCI  33
ROOSEVELT      CLOUDY    34  18  51 CALM      30.05F
VERNAL         CLOUDY    36  12  37 W6        30.03F WCI  31

$$

UTZ013>016-019>022-027-191300-

SOUTHERN UTAH

CITY           SKY/WX    TMP DP  RH WIND       PRES   REMARKS
BRYCE CANYON   PTCLDY    28   1  31 SE7       29.99F WCI  21
CEDAR CITY     PTCLDY    48   8  19 S14       29.85F
MILFORD        MOCLDY    31  31 100 N6        29.85F WCI  25
ST GEORGE      CLOUDY    57  12  17 SE7       29.83F
HANKSVILLE     CLOUDY    36  -4  18 CALM      29.99F
BLANDING         N/A     40  -4  15 CALM      30.13F

$$

REGIONAL REPORTS     COLORADO/ARIZONA

CITY           SKY/WX    TMP DP  RH WIND       PRES   REMARKS
CRAIG, CO      PTCLDY    23  19  85 SW5       30.09F WCI  17
GRAND JUNCTION MOCLDY    40  16  37 E13       30.01F WCI  32
RIFLE, CO      PTCLDY    29  21  72 SE5       30.08F WCI  24
MONTROSE, CO   MOCLDY    31  13  47 SE6       30.09F WCI  25
CORTEZ, CO     MOCLDY    48   2  15 VRB5      30.09S
COLORADO CITY    N/A     41  16  36 SE8       29.94S
PAGE, AZ       CLOUDY    50   6  16 CALM      29.93F
GRAND CANYON   PTCLDY    20  -1  40 NE3       29.99F
KINGMAN, AZ    CLEAR     51  11  20 SW8       29.86F
FLAGSTAFF, AZ  PTCLDY    23   5  46 NE3       30.02F

$$

REGIONAL REPORTS    NEVADA/IDAHO/WYOMING

CITY           SKY/WX    TMP DP  RH WIND       PRES   REMARKS
LAS VEGAS, NV  MOCLDY    60  25  26 SW10      29.76F
ELY, NY        CLOUDY    37  12  35 S8        29.83F WCI  31
ELKO, NV       CLOUDY    38  27  64 S6        29.83F WCI  33
POCATELLO, ID  CLOUDY    36  28  73 E5        29.94F WCI  32
BURLEY, ID     CLOUDY    41  23  48 E12       29.90S
FORT BRIDGER,    N/A     31   6  34 MISG      30.05F
EVANSTON, WY   CLOUDY    35  10  35 E8        29.99F WCI  29
ROCK SPRINGS,  CLOUDY    31  10  41 E8        30.06S WCI  23
KEMMERER, WY   CLOUDY    32   9  37 N15       30.03F WCI  22

$$




USA.gov is the U.S. government's official web portal to all federal, state and local government web resources and services.